Starlink 30612

operational
NORAD ID: 58106 Int'l Des: 2023-161 Owner: SPXS Country: US Constellation: starlink
LEOCIRCULAR

Starlink 30612について

説明を読み込み中...

リアルタイム位置

3D地球を読み込み中...

次回通過

高度履歴

Altitude vs Time

uPlot chart will show altitude changes over time

軌道要素

1 58106U 23161K 25302.54406076 .00030867 00000-0 10473-2 0 9998
2 58106 53.1605 41.6818 0001527 71.5678 288.5488 15.30282372114528
Epoch: Oct 29, 2025 • Age: 5 hours

現在のステータス

高度 480.3 km
速度 7.63 km/s
衛星直下点 52.64°N, 167.98°E
打ち上げ日 Oct 21, 2023
運用期間 2 years
タイプ internet

技術仕様

分類 Payload
質量 730.00 kg
乾燥質量 700.00 kg
総質量 730.00 kg
長さ 0.30 m
直径 4.10 m
スパン 29.00 m
形状 Box + pan
製造者 SPXS
バスタイプ Starlink V2M
フェーズステータス In Orbit
所有者/国 SPXS/US

大規模コンステレーション

Loading constellations...